Regional Weather Roundup
Issued by NWS

Home | Current Version | Previous Version | Text Only | Print | Product List | Glossary Off
Versions: 1 2 3 4 5 6 7 8 9 10 11 12 13 14 15 16 17 18 19 20 21 22 23 24 25 26 27 28 29 30 31 32 33 34 35 36 37 38 39 40 41 42 43 44 45 46 47 48 49 50

000
ASUS43 KMKX 211311
RWRWI

WISCONSIN REGIONAL WEATHER ROUNDUP
NATIONAL WEATHER SERVICE MILWAUKEE/SULLIVAN WI
800 AM CDT TUE OCT 21 2014

NOTE: "FAIR" INDICATES FEW OR NO CLOUDS BELOW 12,000 FEET WITH NO
SIGNIFICANT WEATHER AND/OR OBSTRUCTIONS TO VISIBILITY.

WIZ001-002-006>008-014>016-023>028-211400-
NORTHWEST WISCONSIN

CITY           SKY/WX    TMP DP  RH WIND       PRES   REMARKS
SUPERIOR ARPT  CLOUDY    43  37  78 SE6       30.23R
ASHLAND        CLOUDY    42  34  73 NE7       30.25R
HAYWARD        CLOUDY    42  34  73 NE3       30.22R
SIREN          CLOUDY    43  37  78 E5        30.20S
CUMBERLAND     CLOUDY    41  34  75 E6        30.20R
RICE LAKE      MOCLDY    40  34  76 NE7       30.21S
CHETEK         MOCLDY    40  35  80 NE3       30.21R
LADYSMITH      CLOUDY    42  35  76 NE8       30.23R
EAU CLAIRE     CLEAR     36  34  92 NE5       30.20R WCI  32
MENOMONIE        N/A     33  32  98 CALM      30.21R FOG
NEW RICHMOND   FAIR      32  32 100 CALM      30.19R
OSCEOLA        PTCLDY    30  30 100 CALM      30.22R FOG
$$

WIZ003>005-009-010-017-018-211400-
NORTH CENTRAL WISCONSIN

CITY           SKY/WX    TMP DP  RH WIND       PRES   REMARKS
MANITOWISH WTR CLOUDY    36  34  92 E7        30.22R WCI  31
ARBOR VITAE    CLOUDY    39  36  87 N5        30.21R
WOODRUFF       CLOUDY    39  36  87 N5        30.21R
RHINELANDER    CLOUDY    38  34  85 NE6       30.21R WCI  33
EAGLE RIVER    CLOUDY    37  34  91 NE9       30.21R WCI  30
LAND O LAKES   CLOUDY    37  35  92 CALM      30.22R
PHILLIPS       CLOUDY    38  34  84 NE9       30.20S WCI  32
TOMAHAWK       CLOUDY    39  34  80 CALM      30.21R
MEDFORD        CLOUDY    39  33  80 NE8       30.19R WCI  33
MERRILL        CLOUDY    40  35  80 NE6       30.20R
$$

WIZ029-030-035-036-043>047-211400-
CENTRAL WISCONSIN

CITY           SKY/WX    TMP DP  RH WIND       PRES   REMARKS
WAUSAU         CLOUDY    41  34  76 NE6       30.19R
MOSINEE        CLOUDY    39  36  87 NE12      30.20R WCI  32
MARSHFIELD     MOCLDY    40  34  79 NE9       30.19R WCI  34
STEVENS POINT  CLOUDY    39  34  81 NE5       30.20R
WAUPACA        CLOUDY    43  38  83 CALM      30.20R
WAUTOMA        MOCLDY    37  34  89 CALM      30.20R
WISC RAPIDS    CLOUDY    42  35  76 NE9       30.21R
CAMP DOUGLAS   PTCLDY    32  32 100 CALM      30.20R
$$

WIZ011>013-019>022-031-037>040-048>050-211400-
NORTHEAST WISCONSIN

CITY           SKY/WX    TMP DP  RH WIND       PRES   REMARKS
ANTIGO         CLOUDY    38  34  87 N10       30.19R WCI  31
SHAWANO        CLOUDY    44  35  70 N14       30.20R
OCONTO         CLOUDY    42  38  84 N9        30.19R
STURGEON BAY   CLOUDY    45  36  70 N10G20    30.17R
GREEN BAY      CLOUDY    43  37  79 N12       30.18R
MANITOWOC      CLOUDY    44  40  85 N10       30.16R
APPLETON       MOCLDY    43  36  75 N10       30.18R
CLINTONVILLE   CLOUDY    43  34  70 NE5       30.19R
OSHKOSH        CLOUDY    44  37  76 N13       30.18R
$$

WIZ032>034-041-042-053>061-211400-
SOUTHWEST WISCONSIN

CITY           SKY/WX    TMP DP  RH WIND       PRES   REMARKS
LA CROSSE      CLEAR     38  36  92 CALM      30.21R
SPARTA         CLEAR     28  28  99 CALM      30.22R
VIROQUA        CLEAR     38  38 100 NE6       30.19R WCI  34
BOSCOBEL       FOG       33  32  96 CALM      30.20R VSB 1/4
PRAIRIE DU CHI FOG       38  37  95 CALM      30.19R VSB<1/4
PLATTEVILLE    CLEAR     37  36  94 CALM      30.18R
$$

WIZ056-057-062-063-064-067-068-211400-
SOUTH CENTRAL WISCONSIN

CITY           SKY/WX    TMP DP  RH WIND       PRES   REMARKS
REEDSBURG      CLEAR     39  36  87 NE3       30.19R
BARABOO/DELLS  CLEAR     39  35  84 CALM      30.19R
LONE ROCK      CLEAR     37  33  85 SW3       30.20R
MINERAL POINT  CLEAR     41  37  87 NE3       30.17R
MADISON        PTCLDY    40  36  86 N7        30.18R
MIDDLETON      CLEAR     42  37  82 N7        30.19R
WATERTOWN      CLOUDY    43  38  84 N8        30.16R
MONROE         MOCLDY    41  39  93 N5        30.16R
JANESVILLE     NOT AVBL
$$

WIZ051-052-058>065-066-070>072-211400-
SOUTHEAST WISCONSIN

CITY           SKY/WX    TMP DP  RH WIND       PRES   REMARKS
MILWAUKEE      MOCLDY    46  38  73 N12       30.14R
WAUKESHA       CLOUDY    43  37  81 N9        30.15R
MILWAUKEE/TIMM CLOUDY    45  37  76 N9        30.15R
RACINE         CLOUDY    46  39  76 NW10      30.15R
BURLINGTON     CLEAR     41  37  83 N6        30.15R
KENOSHA        MOCLDY    44  39  82 NW7       30.14R
FOND DU LAC    CLOUDY    45  36  70 N13G23    30.18R
SHEBOYGAN      CLOUDY    45  38  76 N10       30.15R
WEST BEND      CLOUDY    43  36  75 N13       30.15R
JUNEAU         CLOUDY    42  37  81 N5        30.18R
$$

LSZ147-162-211400-
LAKE SUPERIOR

STATION/POSITION TIME  TEMP    WIND        PRES    WAVE
                       AIR SEA DIR/SP/G            HT/PER
                 (UTC) (F)     (DEG/KT/KT) (MB)    (FT/S)
W MID LAKE BUOY  1250   41 46   70/  8/ 10 1025.2R   3/ 7
DEVILS ISLAND    1300   42      70/  7/ 10 1025.3R
PORT WING        1240   44      60/  6/  9 1024.0R
SAXON HARBOR     1200   44      70/  7/ 10 1023.7R
$$

LMZ867-665-643>646-211400-
LAKE MICHIGAN

STATION/POSITION TIME  TEMP    WIND        PRES    WAVE
                       AIR SEA DIR/SP/G            HT/PER
                 (UTC) (F)     (DEG/KT/KT) (MB)    (FT/S)
CHAMBERS ISLAND  1200   45     340/ 18/ 23 1021.0R
N MID LAKE BUOY  1250   45 51  360/ 19/ 23 1021.1R   4/ 5
NORTHPORT PIER   1200   45      20/ 15/ 21 1021.0R
SISTER BAY       1228          360/ 14/ 17   N/A
KEWAUNEE LAKESHO 1200   45     350/  6/ 10 1019.6R
SHEBOYGAN LAKESH 1300   46 50  340/ 15/ 19 1021.5R
PORT WASHINGTON  1200   46     330/  5/ 11 1020.7R
ATWATER BUOY     1300   48     350/ 17/ 19 1021.4R
MILWAUKEE LAKESH 1200   46     330/ 11/ 16   N/A
S MID LAKE BUOY  1250   51 54  350/ 21/ 23 1018.7R   6/ 7
KENOSHA   LAKESH 1300   46     330/ 10/ 14 1020.0R
$$

TC  - TEMPERATURE IN CELSIUS
VSB - VISIBILITY IN STATUTE MILES
WCI - WIND CHILL INDEX
HX  - HEAT INDEX




USA.gov is the U.S. government's official web portal to all federal, state and local government web resources and services.